| time (UTC) | temp F | wind direction | speed knots | gust knots | rain 1hr in | rain 24hr in | rain mn in | humidity % | barometer mb |
| 20260504050352 | 41 | 301 | 0.0 | 0.0 | 0.00 | 0.00 | 0.00 | 82 | 1014.8 |
| 20260504045849 | 40 | 301 | 0.0 | 0.0 | 0.00 | 0.00 | 0.00 | 82 | 1015.0 |
| 20260504045344 | 40 | 301 | 0.0 | 0.0 | 0.00 | 0.00 | 0.00 | 83 | 1014.8 |
| 20260504044841 | 40 | 301 | 0.0 | 0.0 | 0.00 | 0.00 | 0.00 | 82 | 1014.9 |
| 20260504044338 | 40 | 301 | 0.0 | 0.0 | 0.00 | 0.00 | 0.00 | 81 | 1014.6 |
| 20260504043836 | 41 | 300 | 0.0 | 0.0 | 0.00 | 0.00 | 0.00 | 81 | 1014.6 |
| 20260504043332 | 41 | 301 | 0.0 | 0.0 | 0.00 | 0.00 | 0.00 | 80 | 1014.8 |
| 20260504042830 | 41 | 301 | 0.0 | 0.0 | 0.00 | 0.00 | 0.00 | 81 | 1014.6 |
| 20260504042326 | 41 | 301 | 0.0 | 0.0 | 0.00 | 0.00 | 0.00 | 82 | 1014.8 |
| 20260504041823 | 41 | 301 | 0.0 | 0.0 | 0.00 | 0.00 | 0.00 | 82 | 1014.6 |
| 20260504041319 | 41 | 301 | 0.0 | 0.0 | 0.00 | 0.00 | 0.00 | 82 | 1014.5 |
| 20260504040815 | 41 | 300 | 0.0 | 0.0 | 0.00 | 0.00 | 0.00 | 80 | 1014.7 |
| 20260504040313 | 41 | 301 | 0.0 | 0.0 | 0.00 | 0.00 | 0.00 | 80 | 1014.5 |
| 20260504035808 | 41 | 301 | 0.0 | 0.0 | 0.00 | 0.00 | 0.00 | 80 | 1014.7 |
| 20260504035306 | 41 | 301 | 0.0 | 0.0 | 0.00 | 0.00 | 0.00 | 79 | 1014.6 |
| 20260504034803 | 42 | 301 | 0.0 | 0.0 | 0.00 | 0.00 | 0.00 | 79 | 1014.4 |
| 20260504034301 | 42 | 301 | 0.0 | 0.0 | 0.00 | 0.00 | 0.00 | 79 | 1014.4 |
| 20260504033758 | 41 | 301 | 0.0 | 0.0 | 0.00 | 0.00 | 0.00 | 79 | 1014.4 |
| 20260504033255 | 41 | 301 | 0.0 | 0.0 | 0.00 | 0.00 | 0.00 | 79 | 1014.3 |
| 20260504032752 | 41 | 301 | 0.0 | 0.0 | 0.00 | 0.00 | 0.00 | 79 | 1014.4 |
| 20260504032249 | 41 | 300 | 0.0 | 0.0 | 0.00 | 0.00 | 0.00 | 79 | 1014.3 |
| 20260504031745 | 42 | 301 | 0.0 | 0.0 | 0.00 | 0.00 | 0.00 | 78 | 1014.3 |
| 20260504031243 | 42 | 301 | 0.0 | 0.0 | 0.00 | 0.00 | 0.00 | 77 | 1014.4 |
| 20260504030738 | 42 | 301 | 0.0 | 0.0 | 0.00 | 0.00 | 0.00 | 76 | 1014.1 |
| 20260504030236 | 42 | 301 | 0.0 | 0.0 | 0.00 | 0.00 | 0.00 | 76 | 1014.3 |
| 20260504025732 | 43 | 301 | 0.0 | 0.0 | 0.00 | 0.00 | 0.00 | 75 | 1014.3 |
| 20260504025229 | 43 | 301 | 0.0 | 0.0 | 0.00 | 0.00 | 0.00 | 74 | 1014.0 |
| 20260504024726 | 43 | 301 | 0.0 | 0.0 | 0.00 | 0.00 | 0.00 | 73 | 1014.3 |
| 20260504024222 | 44 | 301 | 0.0 | 0.0 | 0.00 | 0.00 | 0.00 | 72 | 1014.2 |
| 20260504023714 | 44 | 301 | 0.0 | 0.0 | 0.00 | 0.00 | 0.00 | 73 | 1014.2 |
| 20260504023210 | 43 | 300 | 0.0 | 0.0 | 0.00 | 0.00 | 0.00 | 74 | 1014.1 |
| 20260504022706 | 43 | 300 | 0.0 | 0.0 | 0.00 | 0.00 | 0.00 | 73 | 1014.1 |
| 20260504022202 | 43 | 300 | 0.0 | 0.0 | 0.00 | 0.00 | 0.00 | 72 | 1014.2 |
| 20260504021700 | 44 | 300 | 0.0 | 0.0 | 0.00 | 0.00 | 0.00 | 71 | 1014.1 |
| 20260504021156 | 44 | 301 | 0.0 | 0.0 | 0.00 | 0.00 | 0.00 | 70 | 1014.0 |
| 20260504020654 | 44 | 300 | 0.0 | 0.0 | 0.00 | 0.00 | 0.00 | 70 | 1014.1 |
| 20260504020149 | 44 | 300 | 0.0 | 0.0 | 0.00 | 0.00 | 0.00 | 70 | 1014.2 |
| 20260504015647 | 44 | 300 | 0.0 | 0.0 | 0.00 | 0.00 | 0.00 | 68 | 1014.2 |
| 20260504015143 | 45 | 301 | 0.0 | 0.0 | 0.00 | 0.00 | 0.00 | 68 | 1014.0 |
| 20260504014638 | 45 | 301 | 0.0 | 0.0 | 0.00 | 0.00 | 0.00 | 67 | 1014.1 |
| 20260504014136 | 45 | 300 | 0.0 | 0.0 | 0.00 | 0.00 | 0.00 | 68 | 1014.0 |
| 20260504013634 | 46 | 300 | 0.0 | 0.0 | 0.00 | 0.00 | 0.00 | 66 | 1014.0 |
| 20260504013130 | 46 | 300 | 0.0 | 0.0 | 0.00 | 0.00 | 0.00 | 65 | 1013.9 |
| 20260504012627 | 46 | 300 | 0.0 | 0.0 | 0.00 | 0.00 | 0.00 | 64 | 1013.9 |
| 20260504012126 | 46 | 300 | 0.0 | 0.0 | 0.00 | 0.00 | 0.00 | 64 | 1013.8 |
| 20260504011622 | 47 | 300 | 0.0 | 0.0 | 0.00 | 0.00 | 0.00 | 62 | 1014.0 |
| 20260504011118 | 47 | 300 | 0.0 | 0.0 | 0.00 | 0.00 | 0.00 | 62 | 1013.7 |
| 20260504010614 | 48 | 300 | 0.0 | 0.0 | 0.00 | 0.00 | 0.00 | 59 | 1013.6 |
| 20260504010110 | 48 | 300 | 0.0 | 0.0 | 0.00 | 0.00 | 0.00 | 58 | 1013.9 |
| 20260504005607 | 49 | 300 | 0.0 | 0.0 | 0.00 | 0.00 | 0.00 | 58 | 1013.5 |
| 20260504005104 | 49 | 300 | 0.0 | 0.0 | 0.00 | 0.00 | 0.00 | 57 | 1013.8 |
| 20260504004602 | 49 | 300 | 0.0 | 0.0 | 0.00 | 0.00 | 0.00 | 56 | 1013.6 |
| 20260504004059 | 50 | 300 | 0.0 | 0.0 | 0.00 | 0.00 | 0.00 | 54 | 1013.5 |
| 20260504003555 | 50 | 300 | 0.0 | 0.0 | 0.00 | 0.00 | 0.00 | 53 | 1013.6 |
| 20260504003052 | 51 | 300 | 0.0 | 0.0 | 0.00 | 0.00 | 0.00 | 51 | 1013.4 |
| 20260504002549 | 52 | 300 | 0.0 | 0.0 | 0.00 | 0.00 | 0.00 | 49 | 1013.3 |
| 20260504002047 | 53 | 300 | 0.0 | 0.0 | 0.00 | 0.00 | 0.00 | 48 | 1013.2 |
| 20260504001544 | 54 | 298 | 0.0 | 0.0 | 0.00 | 0.00 | 0.00 | 45 | 1013.3 |
| 20260504001040 | 54 | 292 | 0.0 | 0.0 | 0.00 | 0.00 | 0.00 | 43 | 1013.2 |
| 20260504000537 | 54 | 306 | 0.0 | 0.0 | 0.00 | 0.00 | 0.00 | 44 | 1013.2 |
| 20260504000035 | 55 | 306 | 0.0 | 0.0 | 0.00 | 0.00 | 0.00 | 41 | 1013.2 |
| 20260503235533 | 56 | 306 | 0.0 | 0.0 | 0.00 | 0.00 | 0.00 | 39 | 1013.1 |
| 20260503235029 | 57 | 306 | 0.0 | 0.0 | 0.00 | 0.00 | 0.00 | 40 | 1013.1 |
| 20260503234527 | 58 | 306 | 0.0 | 0.0 | 0.00 | 0.00 | 0.00 | 37 | 1012.8 |
| 20260503234025 | 58 | 307 | 0.0 | 0.0 | 0.00 | 0.00 | 0.00 | 34 | 1012.9 |
| 20260503233521 | 58 | 305 | 0.9 | 1.7 | 0.00 | 0.00 | 0.00 | 34 | 1012.5 |
| 20260503233017 | 59 | 295 | 0.9 | 0.9 | 0.00 | 0.00 | 0.00 | 34 | 1012.9 |
| 20260503232514 | 59 | 324 | 0.9 | 0.9 | 0.00 | 0.00 | 0.00 | 33 | 1012.5 |
| 20260503232012 | 60 | 324 | 0.9 | 1.7 | 0.00 | 0.00 | 0.00 | 32 | 1012.6 |
| 20260503231510 | 60 | 311 | 2.6 | 2.6 | 0.00 | 0.00 | 0.00 | 31 | 1012.8 |
| 20260503231006 | 60 | 282 | 2.6 | 4.3 | 0.00 | 0.00 | 0.00 | 30 | 1012.8 |
| 20260503230503 | 61 | 218 | 3.5 | 7.0 | 0.00 | 0.00 | 0.00 | 30 | 1012.6 |
| 20260503230000 | 61 | 335 | 1.7 | 2.6 | 0.00 | 0.00 | 0.00 | 31 | 1012.8 |
| 20260503225457 | 61 | 21 | 0.9 | 1.7 | 0.00 | 0.00 | 0.00 | 29 | 1012.8 |
| 20260503224952 | 61 | 15 | 1.7 | 1.7 | 0.00 | 0.00 | 0.00 | 30 | 1012.8 |
| 20260503224449 | 62 | 243 | 3.5 | 4.3 | 0.00 | 0.00 | 0.00 | 29 | 1012.6 |
| 20260503223947 | 62 | 345 | 1.7 | 1.7 | 0.00 | 0.00 | 0.00 | 29 | 1012.5 |
| 20260503223445 | 62 | 32 | 2.6 | 4.3 | 0.00 | 0.00 | 0.00 | 29 | 1012.6 |
| 20260503222940 | 62 | 332 | 0.9 | 1.7 | 0.00 | 0.00 | 0.00 | 29 | 1012.6 |
| 20260503222439 | 62 | 280 | 3.5 | 5.2 | 0.00 | 0.00 | 0.00 | 29 | 1012.6 |
| 20260503221937 | 62 | 10 | 5.2 | 7.0 | 0.00 | 0.00 | 0.00 | 28 | 1012.6 |
| 20260503221435 | 62 | 312 | 1.7 | 2.6 | 0.00 | 0.00 | 0.00 | 29 | 1012.6 |
| 20260503220931 | 63 | 293 | 1.7 | 1.7 | 0.00 | 0.00 | 0.00 | 27 | 1012.6 |
| 20260503220428 | 61 | 336 | 1.7 | 2.6 | 0.00 | 0.00 | 0.00 | 29 | 1012.9 |
| 20260503215925 | 62 | 337 | 3.5 | 5.2 | 0.00 | 0.00 | 0.00 | 28 | 1012.6 |
| 20260503215422 | 62 | 341 | 2.6 | 2.6 | 0.00 | 0.00 | 0.00 | 29 | 1012.6 |
| 20260503214920 | 61 | 30 | 1.7 | 4.3 | 0.00 | 0.00 | 0.00 | 28 | 1012.8 |
| 20260503214417 | 61 | 105 | 3.5 | 4.3 | 0.00 | 0.00 | 0.00 | 28 | 1012.6 |
| 20260503213914 | 62 | 312 | 2.6 | 4.3 | 0.00 | 0.00 | 0.00 | 29 | 1012.6 |
| 20260503213412 | 62 | 128 | 3.5 | 4.3 | 0.00 | 0.00 | 0.00 | 29 | 1012.6 |
| 20260503212908 | 62 | 338 | 3.5 | 4.3 | 0.00 | 0.00 | 0.00 | 28 | 1012.6 |
| 20260503212406 | 63 | 277 | 2.6 | 4.3 | 0.00 | 0.00 | 0.00 | 29 | 1012.6 |
| 20260503211903 | 62 | 312 | 0.0 | 0.9 | 0.00 | 0.00 | 0.00 | 29 | 1012.5 |
| 20260503211400 | 62 | 223 | 3.5 | 5.2 | 0.00 | 0.00 | 0.00 | 27 | 1012.5 |
| 20260503210855 | 61 | 302 | 0.0 | 0.0 | 0.00 | 0.00 | 0.00 | 30 | 1012.6 |
| 20260503210353 | 61 | 305 | 2.6 | 6.1 | 0.00 | 0.00 | 0.00 | 28 | 1012.6 |
| 20260503205847 | 62 | 310 | 6.1 | 9.6 | 0.00 | 0.00 | 0.00 | 28 | 1013.0 |
| 20260503205344 | 62 | 13 | 1.7 | 2.6 | 0.00 | 0.00 | 0.00 | 28 | 1012.8 |
| 20260503204840 | 62 | 85 | 2.6 | 4.3 | 0.00 | 0.00 | 0.00 | 28 | 1012.9 |
| 20260503204338 | 63 | 19 | 1.7 | 1.7 | 0.00 | 0.00 | 0.00 | 28 | 1012.8 |
| 20260503203835 | 62 | 326 | 0.9 | 1.7 | 0.00 | 0.00 | 0.00 | 29 | 1012.8 |
| 20260503203333 | 61 | 355 | 2.6 | 4.3 | 0.00 | 0.00 | 0.00 | 29 | 1013.0 |
| 20260503202829 | 61 | 311 | 0.9 | 1.7 | 0.00 | 0.00 | 0.00 | 30 | 1012.9 |
| 20260503202327 | 61 | 359 | 3.5 | 5.2 | 0.00 | 0.00 | 0.00 | 30 | 1013.0 |
| 20260503201826 | 62 | 301 | 0.9 | 0.9 | 0.00 | 0.00 | 0.00 | 32 | 1013.0 |
| 20260503201322 | 61 | 290 | 5.2 | 7.8 | 0.00 | 0.00 | 0.00 | 30 | 1013.0 |
| 20260503200820 | 60 | 290 | 2.6 | 2.6 | 0.00 | 0.00 | 0.00 | 31 | 1013.0 |
| 20260503200315 | 60 | 280 | 1.7 | 2.6 | 0.00 | 0.00 | 0.00 | 30 | 1013.2 |
| 20260503195813 | 60 | 313 | 2.6 | 4.3 | 0.00 | 0.00 | 0.00 | 31 | 1013.4 |
| 20260503195309 | 60 | 330 | 5.2 | 6.1 | 0.00 | 0.00 | 0.00 | 32 | 1013.5 |
| 20260503194807 | 60 | 259 | 2.6 | 6.1 | 0.00 | 0.00 | 0.00 | 32 | 1013.5 |
| 20260503194302 | 59 | 349 | 2.6 | 2.6 | 0.00 | 0.00 | 0.00 | 33 | 1013.4 |
| 20260503193759 | 60 | 26 | 6.1 | 7.0 | 0.00 | 0.00 | 0.00 | 31 | 1013.3 |
| 20260503193255 | 60 | 245 | 2.6 | 4.3 | 0.00 | 0.00 | 0.00 | 32 | 1013.6 |
| 20260503192751 | 61 | 311 | 3.5 | 5.2 | 0.00 | 0.00 | 0.00 | 31 | 1013.6 |
| 20260503192246 | 60 | 62 | 1.7 | 2.6 | 0.00 | 0.00 | 0.00 | 34 | 1013.5 |
| 20260503191743 | 59 | 54 | 5.2 | 6.1 | 0.00 | 0.00 | 0.00 | 32 | 1013.7 |
| 20260503191240 | 60 | 43 | 4.3 | 6.1 | 0.00 | 0.00 | 0.00 | 33 | 1013.7 |
| 20260503190737 | 60 | 4 | 3.5 | 8.7 | 0.00 | 0.00 | 0.00 | 31 | 1013.8 |
| 20260503190234 | 59 | 296 | 0.9 | 0.9 | 0.00 | 0.00 | 0.00 | 34 | 1013.7 |
| 20260503185731 | 58 | 338 | 1.7 | 1.7 | 0.00 | 0.00 | 0.00 | 32 | 1013.9 |
| 20260503185226 | 59 | 333 | 0.9 | 1.7 | 0.00 | 0.00 | 0.00 | 33 | 1013.8 |
| 20260503184721 | 58 | 33 | 5.2 | 7.0 | 0.00 | 0.00 | 0.00 | 32 | 1013.9 |
| 20260503184218 | 58 | 24 | 3.5 | 4.3 | 0.00 | 0.00 | 0.00 | 34 | 1014.0 |
| 20260503183714 | 58 | 299 | 4.3 | 7.0 | 0.00 | 0.00 | 0.00 | 32 | 1014.3 |
| 20260503183212 | 58 | 337 | 2.6 | 2.6 | 0.00 | 0.00 | 0.00 | 33 | 1014.2 |
| 20260503182710 | 58 | 272 | 3.5 | 7.0 | 0.00 | 0.00 | 0.00 | 33 | 1014.1 |
| 20260503182208 | 56 | 45 | 2.6 | 7.0 | 0.00 | 0.00 | 0.00 | 34 | 1014.2 |
| 20260503181704 | 57 | 318 | 0.0 | 0.9 | 0.00 | 0.00 | 0.00 | 33 | 1014.4 |
| 20260503181201 | 56 | 3 | 4.3 | 6.1 | 0.00 | 0.00 | 0.00 | 33 | 1014.4 |
| 20260503180658 | 57 | 245 | 2.6 | 4.3 | 0.00 | 0.00 | 0.00 | 32 | 1014.5 |
| 20260503180156 | 56 | 47 | 4.3 | 6.1 | 0.00 | 0.00 | 0.00 | 33 | 1014.4 |
| 20260503175653 | 57 | 19 | 2.6 | 2.6 | 0.00 | 0.00 | 0.00 | 34 | 1014.5 |
| 20260503175150 | 56 | 28 | 2.6 | 4.3 | 0.00 | 0.00 | 0.00 | 37 | 1014.4 |
| 20260503174646 | 55 | 326 | 2.6 | 2.6 | 0.00 | 0.00 | 0.00 | 34 | 1014.4 |
| 20260503174144 | 55 | 336 | 4.3 | 5.2 | 0.00 | 0.00 | 0.00 | 34 | 1014.4 |
| 20260503173639 | 57 | 346 | 4.3 | 7.0 | 0.00 | 0.00 | 0.00 | 33 | 1014.6 |
| 20260503173135 | 56 | 28 | 2.6 | 4.3 | 0.00 | 0.00 | 0.00 | 34 | 1014.4 |
| 20260503172632 | 56 | 4 | 5.2 | 6.1 | 0.00 | 0.00 | 0.00 | 35 | 1014.5 |
| 20260503172130 | 56 | 313 | 3.5 | 6.1 | 0.00 | 0.00 | 0.00 | 33 | 1014.6 |
| 20260503171626 | 55 | 7 | 5.2 | 9.6 | 0.00 | 0.00 | 0.00 | 34 | 1014.8 |
| 20260503171123 | 56 | 316 | 2.6 | 4.3 | 0.00 | 0.00 | 0.00 | 35 | 1014.5 |
| 20260503170621 | 55 | 302 | 0.9 | 0.9 | 0.00 | 0.00 | 0.00 | 38 | 1014.7 |
| 20260503170117 | 55 | 19 | 2.6 | 5.2 | 0.00 | 0.00 | 0.00 | 36 | 1014.6 |
| 20260503151012 | 51 | 319 | 1.7 | 2.6 | 0.00 | 0.00 | 0.00 | 42 | 1015.2 |
| 20260503150509 | 50 | 246 | 1.7 | 2.6 | 0.00 | 0.00 | 0.00 | 42 | 1015.3 |
| 20260503131402 | 47 | 51 | 2.6 | 2.6 | 0.00 | 0.00 | 0.00 | 53 | 1015.4 |
| 20260503130859 | 46 | 45 | 4.3 | 6.1 | 0.00 | 0.00 | 0.00 | 53 | 1015.3 |
| 20260503130356 | 47 | 45 | 4.3 | 6.1 | 0.00 | 0.00 | 0.00 | 53 | 1015.4 |
| 20260503110755 | 41 | 302 | 0.0 | 0.9 | 0.00 | 0.00 | 0.00 | 65 | 1014.5 |
| 20260503110252 | 40 | 323 | 0.0 | 0.9 | 0.00 | 0.00 | 0.00 | 66 | 1014.3 |
| 20260503100219 | 41 | 307 | 2.6 | 2.6 | 0.00 | 0.00 | 0.00 | 67 | 1013.4 |
| 20260503090138 | 42 | 297 | 0.0 | 0.9 | 0.00 | 0.00 | 0.00 | 69 | 1012.9 |
| 20260503081608 | 42 | 338 | 0.9 | 0.9 | 0.00 | 0.00 | 0.00 | 68 | 1012.4 |
| 20260503081105 | 42 | 303 | 0.0 | 0.9 | 0.00 | 0.00 | 0.00 | 68 | 1012.5 |
| 20260503080601 | 42 | 348 | 1.7 | 2.6 | 0.00 | 0.00 | 0.00 | 68 | 1012.3 |
| 20260503072540 | 42 | 9 | 1.7 | 2.6 | 0.00 | 0.00 | 0.00 | 68 | 1011.8 |
| 20260503072037 | 43 | 0 | 0.9 | 0.9 | 0.00 | 0.00 | 0.00 | 68 | 1011.8 |
| 20260503071534 | 43 | 326 | 1.7 | 1.7 | 0.00 | 0.00 | 0.00 | 68 | 1011.9 |
| 20260503071030 | 42 | 15 | 1.7 | 2.6 | 0.00 | 0.00 | 0.00 | 69 | 1011.9 |
| 20260503070527 | 43 | 357 | 1.7 | 2.6 | 0.00 | 0.00 | 0.00 | 69 | 1011.9 |
| 20260503054945 | 43 | 345 | 0.9 | 1.7 | 0.00 | 0.00 | 0.00 | 71 | 1012.0 |
| 20260503054442 | 43 | 285 | 0.9 | 1.7 | 0.00 | 0.00 | 0.00 | 71 | 1012.1 |
| 20260503053939 | 43 | 344 | 1.7 | 1.7 | 0.00 | 0.00 | 0.00 | 70 | 1011.9 |